Regional Weather Roundup
Issued by NWS

Home | Current Version | Previous Version | Text Only | Print | Product List | Glossary Off
Versions: 1 2 3 4 5 6 7 8 9 10 11 12 13 14 15 16 17 18 19 20 21 22 23 24 25 26 27 28 29 30 31 32 33 34 35 36 37 38 39 40 41 42 43 44 45 46 47 48 49 50

000
ASUS45 KCYS 070210
RWRWY

WYOMING REGIONAL WEATHER ROUNDUP
NATIONAL WEATHER SERVICE CHEYENNE WY
800 PM MDT MON JUL 06 2015

NOTE:  "FAIR" INDICATES FEW OR NO CLOUDS BELOW 12,000 FEET
WITH NO SIGNIFICANT WEATHER AND/OR OBSTRUCTIONS TO VISIBILITY.

WYZ001-070300-
YELLOWSTONE NATIONAL PARK

CITY           SKY/WX    TMP DP  RH WIND       PRES   REMARKS
LK YELLOWSTONE   N/A     62  50  64 VRB3      30.30S
W YELLOWSTONE  NOT AVBL

$$
WYZ002>013-054>058-071-098>099-070300-
NORTHERN WYOMING

CITY           SKY/WX    TMP DP  RH WIND       PRES   REMARKS
JACKSON        PTCLDY    64  54  68 CALM      30.21R
CODY           FAIR      66  50  55 SE5       30.18F
GREYBULL       FAIR      75  49  39 SW9       30.11S
WORLAND        FAIR      72  52  49 CALM      30.13F
SHERIDAN       FAIR      65  55  70 E5        30.17F
BUFFALO        FAIR      62  54  74 S6        30.22F
GILLETTE       FAIR      64  52  64 NE8       30.20S
HULETT         MOCLDY    63  52  67 CALM      30.23S
NEWCASTLE      FAIR      64  52  63 S8        30.21S

$$
WYZ014>020-022>026-101>103-070300-
CENTRAL WYOMING

CITY           SKY/WX    TMP DP  RH WIND       PRES   REMARKS
BIG PINEY      FAIR      58  51  78 CALM      30.27S
PINEDALE       CLOUDY    55  52  88 CALM      30.27S
DUBOIS         CLOUDY    55  48  76 SE8       30.29S
LANDER         CLOUDY    59  52  77 E7        30.20F
RIVERTON       FAIR      64  55  72 SW8       30.22R
CASPER         FAIR      63  51  65 E10       30.22R
DOUGLAS        CLOUDY    61  53  75 S7        30.24S HAZE

$$
WYZ021-027>030-104>119-070300-
SOUTHERN WYOMING

CITY           SKY/WX    TMP DP  RH WIND       PRES   REMARKS
EVANSTON       MOCLDY    64  52  64 E15       30.25S
KEMMERER       FAIR      59  52  77 E7        30.28R
FORT BRIDGER   LGT RAIN  59  57  94 SE13      30.31S
ROCK SPRINGS   RAIN      55  52  89 E8        30.29S FOG
DIXON          FAIR      72  49  44 NE12      30.21R
RAWLINS        FAIR      64  51  62 E10       30.25R
SARATOGA       FAIR      68  50  52 N5        30.25R
LARAMIE        CLOUDY    56  50  80 SE14      30.30S
CHEYENNE       CLOUDY    57  52  83 E7        30.28F HAZE
TORRINGTON     CLOUDY    65  53  65 CALM      30.21S HAZE
PINE BLUFFS    CLOUDY    61  52  72 N5        30.26S HAZE

$$



USA.gov is the U.S. government's official web portal to all federal, state and local government web resources and services.